Regional Weather Roundup
Issued by NWS

Home | Current Version | Previous Version | Graphics & Text | Print | Product List | Glossary On
Versions: 1 2 3 4 5 6 7 8 9 10 11 12 13 14 15 16 17 18 19 20 21 22 23 24 25 26 27 28 29 30 31 32 33 34 35 36 37 38 39 40 41 42 43 44 45 46 47 48 49 50
000
ASUS45 KSLC 170410
RWRUT

UTAH REGIONAL WEATHER ROUNDUP
NATIONAL WEATHER SERVICE SALT LAKE CITY UT
900 PM MST TUE DEC 16 2014

UTZ001>011-023>025-170500-

NORTHERN UTAH

CITY           SKY/WX    TMP DP  RH WIND       PRES   REMARKS
BRIGHAM CITY   CLOUDY    37  31  81 N3        30.01F
HILL AFB       MOCLDY    35  29  77 W5        30.00S WCI  31
LOGAN          MOCLDY    33  28  81 CALM      30.01S
OGDEN          CLOUDY    35  29  78 W5        30.00R WCI  31
PROVO AIRPORT  MOCLDY    39  25  56 VRB3      30.01S
SALT LAKE CITY MOCLDY    33  31  92 CALM      30.00S
VERNAL         CLOUDY    25  24  96 CALM      30.10S FOG
WENDOVER       CLEAR     27  23  86 W3        30.02S
HEBER CITY     CLOUDY    36  21  55 CALM      30.00S
WEST JORDAN    MOCLDY    32  30  93 CALM      30.01S

$$

UTZ012>022-026-027-170500-

SOUTHERN/CENTRAL UTAH

CITY           SKY/WX    TMP DP  RH WIND       PRES   REMARKS
BLANDING       MOCLDY    35  26  71 CALM      30.13S
BRYCE CANYON   MOCLDY    24  20  84 CALM      30.04S
CEDAR CITY     CLOUDY    34  23  64 N3        29.99S
DELTA          MOCLDY    37  26  65 S7        30.00R WCI  31
MILFORD        CLOUDY    36  26  67 S8        29.99S WCI  30
MOAB/CYNLANDS  CLOUDY    35  31  85 NW8       30.06S WCI  29
PRICE          MOCLDY    28  19  69 N5        30.06S WCI  23
ST GEORGE      MOCLDY    46  32  57 CALM      30.01S
KANAB          MOCLDY    37  27  65 NW10      30.06S WCI  30

$$

REGIONAL REPORTS     COLORADO/ARIZONA

CITY           SKY/WX    TMP DP  RH WIND       PRES   REMARKS
CRAIG, CO      CLOUDY    18  15  88 CALM      30.07S
GRAND JUNCTION CLOUDY    32  29  88 CALM      30.05F
RIFLE          MOCLDY    26  23  88 SE3       30.08S
MONTROSE       CLOUDY    31  26  82 SE5       30.08S WCI  26
CORTEZ         PTCLDY    34  25  69 NE7       30.06F WCI  28
PAGE, AZ       CLOUDY    43  26  51 CALM      30.03S HAZE
GRAND CANYON   CLOUDY    32  26  78 NE3       30.05R
KINGMAN        CLOUDY    43  36  76 SE5       30.01S
FLAGSTAFF      CLOUDY    30  24  78 CALM      30.05S

$$

REGIONAL REPORTS    NEVADA/IDAHO/WYOMING

CITY           SKY/WX    TMP DP  RH WIND       PRES   REMARKS
LAS VEGAS, NV  CLOUDY    52  34  50 S6        29.95F
ELY            PTCLDY    22  20  92 S8        29.99F WCI  12
ELKO           MOCLDY    30  27  88 NE7       29.96F WCI  23
POCATELLO, ID  CLOUDY    32  32 100 CALM      30.01S FOG
BURLEY         CLOUDY    33  31  92 CALM      29.99R
EVANSTON, WY   PTCLDY    28  18  66 E3        29.99S
ROCK SPRINGS   MOCLDY    22  17  81 CALM      30.01S

$$



USA.gov is the U.S. government's official web portal to all federal, state and local government web resources and services.